Вернуться в каталог

STARLINK-3331

АктивенСвязьVLEO
NORAD 50834·PAYLOAD·🇺🇸 United States

Запущен Jan 6, 2022 с Cape Canaveral Space Force Station

Loading…

Ближайшие Пролёты (ближайшие 24 часа)

TLE

СвежийSource: CelesTrak SupGP

Эпоха: Sep 14, 2026, 21:06 UTC

1 50834C 22001AH  26257.87965278  .00041819  00000+0  12694-2 0  2572
2 50834  53.1599  36.2727 0001275  78.1765  55.2650 15.33517562    12

Отслеживайте STARLINK-3331 в реальном времени с AllMySat

Download on the App Store